星链-34751 (STARLINK-34751)

导读

STARLINK-34751是美国于2025年8月27日发射的星链卫星,归属于SpaceX公司的星链星座项目。星链项目旨在构建全球卫星互联网通信系统,为全球偏远地区、海洋等地面网络覆盖不足区域提供宽带互联网接入服务。该卫星入轨后,将进一步扩充星链星座的卫星规模,提升星座整体通信服务的覆盖能力与运行稳定性。

Basic Information
目录编号:
65338
目录名称:
STARLINK-34751
国际标识:
2025-189R
轨道中心:
EARTH
卫星名称:
星链-34751
卫星全名:
星链-34751 (STARLINK-34751)
卫星状态:
在轨 (已飞行373 天)
发射日期:
2025-08-27 UTC
国别 :
美国 (US)
星等 :
--
Orbit Information
数据来源 国际轨道数据
星历时间: 2026-09-02T05:38:56+0800
2天前
查看轨道信息
半长轴: 6848.857km
偏心率: 0.0000482
轨道倾角: 53.158°
近地点辐角 293.673°
升交点赤经 106.980°
平近点角 66.422°
近地点: 470.389km
远地点: 471.051km
周期: 94.013分钟
每日圈数: 15.31707
Detailed Information
固有亮度:
5
最大亮度:
2.5
卫星平台:
Starlink V1.0
覆盖范围:
全球
运营商:
太空探索技术公司
运营商所在国:
美国
制造商(研发单位):
太空探索技术公司
制造商所在国:
美国
使用方式:
暂无
Satellite Introduction
Starlink 计划是 SpaceX 推出的全球卫星互联网项目,通过发射低轨道卫星,为全球尤其是偏远地区提供高速、低延迟的互联网服务。自 2019 年起,Starlink 已部署数千颗卫星,旨在缩小全球数字鸿沟,推动互联网普及。该项目还为军事、航空等行业提供通信支持,带来广泛经济效益。
2D Orbit Map
3D Orbit Map
Orbit Altitude Analysis Chart
Orbit Inclination Analysis Chart
Orbit Comprehensive Analysis Chart
View Comprehensive Chart
Conjunction Data List
Event ID Objects TCA Miss Dist (km) Collision Risk Probability Collision Risk Index (CRI) Action
CDM_260904-114906-264206-533822
2026-09-04T
11:49:19+0000
0.770 km
远距离
5.98896E-5 中风险 0.71
CDM_260903-103704-704106-533821
2026-09-03T
10:37:20+0000
0.835 km
远距离
4.918174E-5 中风险 0.69
CDM_260828-041506-034606-533821
2026-08-28T
04:15:59+0000
1.225 km
极远距离
1.091257E-5 中风险 0.56
CDM_260904-011506-308706-533821
2026-09-04T
01:15:54+0000
1.305 km
极远距离
1.000274E-5 中风险 0.55
CDM_260903-062306-533806-922221
2026-09-03T
06:23:20+0000
1.975 km
极远距离
2.929353E-6 低风险 0.44
CDM_260904-022206-442106-533821
2026-09-04T
02:22:17+0000
2.044 km
极远距离
2.276891E-6 低风险 0.42
CDM_260904-075406-264206-533821
2026-09-04T
07:54:16+0000
2.256 km
极远距离
2.027967E-6 低风险 0.41
CDM_260903-234106-308706-533821
2026-09-03T
23:41:54+0000
2.331 km
极远距离
1.887029E-6 低风险 0.41
CDM_260903-121206-533806-757122
2026-09-03T
12:12:36+0000
2.407 km
极远距离
1.855763E-6 低风险 0.4
CDM_260827-200506-415606-533821
2026-08-27T
20:05:33+0000
2.558 km
极远距离
1.666982E-6 低风险 0.39